This is the latest recevied weather packets stored in our database for station/object OK1ALX-6. If no packets are shown the sender has not sent any weather packets the latest 10 day(s).
| Time | Temp. | Humidity | Pressure | Rain* | Wind** | Luminosity | Snow |
|---|---|---|---|---|---|---|---|
| 1777342204 | 2.22° C | 80% | 1028.3 hPa | 0 mm | - | 0 W/m² | - |
| 1777341603 | 1.67° C | 81% | 1028.3 hPa | 0 mm | - | 0 W/m² | - |
| 1777341003 | 1.67° C | 82% | 1028.2 hPa | 0 mm | - | 0 W/m² | - |
| 1777340403 | 1.67° C | 82% | 1028.1 hPa | 0 mm | - | 0 W/m² | - |
| 1777339803 | 1.67° C | 83% | 1028.3 hPa | 0 mm | - | 0 W/m² | - |
| 1777339203 | 1.67° C | 83% | 1028.3 hPa | 0 mm | - | 0 W/m² | - |
| 1777338603 | 2.22° C | 81% | 1028.1 hPa | 0 mm | - | 0 W/m² | - |
| 1777338003 | 2.78° C | 80% | 1028.2 hPa | 0 mm | - | 0 W/m² | - |
| 1777337403 | 2.78° C | 79% | 1028.1 hPa | 0 mm | - | 0 W/m² | - |
| 1777336803 | 2.78° C | 79% | 1028.1 hPa | 0 mm | - | 0 W/m² | - |
| 1777336203 | 2.78° C | 79% | 1028.2 hPa | 0 mm | - | 0 W/m² | - |
| 1777335603 | 2.78° C | 78% | 1028 hPa | 0 mm | - | 0 W/m² | - |
| 1777335003 | 3.33° C | 77% | 1028 hPa | 0 mm | - | 0 W/m² | - |
| 1777334403 | 3.33° C | 78% | 1028 hPa | 0 mm | - | 0 W/m² | - |
| 1777333803 | 3.33° C | 78% | 1028.2 hPa | 0 mm | - | 0 W/m² | - |
| 1777333204 | 3.33° C | 76% | 1028.1 hPa | 0 mm | - | 0 W/m² | - |
| 1777332603 | 3.33° C | 78% | 1028 hPa | 0 mm | - | 0 W/m² | - |
| 1777332003 | 3.33° C | 78% | 1027.8 hPa | 0 mm | - | 0 W/m² | - |
| 1777331403 | 3.89° C | 77% | 1027.7 hPa | 0 mm | - | 0 W/m² | - |
| 1777330803 | 4.44° C | 75% | 1027.5 hPa | 0 mm | - | 0 W/m² | - |
| 1777330203 | 3.89° C | 73% | 1027.7 hPa | 0 mm | - | 0 W/m² | - |
| 1777329603 | 4.44° C | 76% | 1027.7 hPa | 0 mm | - | 0 W/m² | - |
| 1777329004 | 4.44° C | 75% | 1027.6 hPa | 0 mm | - | 0 W/m² | - |
| 1777328403 | 5° C | 72% | 1027.3 hPa | 0 mm | - | 0 W/m² | - |
| 1777327803 | 5° C | 74% | 1027.6 hPa | 0 mm | - | 0 W/m² | - |
* Rain latest hour (hover to see other rain measurements)
** Current wind speed in m/s (hover to see current wind gust speed)